Weather History for El Centro, CA

Change the Weather History Date:

Wednesday, May 8, 2013

  Actual Average Record
Temperature  
Mean Temperature 71 °F -  
Max Temperature 84 °F 89 °F 105 °F (2001)
Min Temperature 60 °F 63 °F 55 °F (2008)
Cooling Degree Days 6    
Growing Degree Days 21 (Base 50)    
Moisture  
Dew Point 41 °F    
Average Humidity 35    
Maximum Humidity 52    
Minimum Humidity 19    
Precipitation  
Precipitation 0.00 in - - ()
Sea Level Pressure  
Sea Level Pressure 30.01 in    
Wind  
Wind Speed 13 mph (WSW)    
Max Wind Speed 20 mph    
Max Gust Speed -    
Visibility 10 miles    
Events      
Averages and records for this station are not official NWS values.
T = Trace of Precipitation, MM = Missing Value Source: NWS Daily Summary

Daily Weather History Graph

Daily Weather History Graph

Search for Another Location

Airport:

Trip Planner

Search our weather history database for the weather conditions in past years. The results will help you decide how hot, cold, wet, or windy it might be!

Date:

Astronomy

May. 08, 2013 Rise Set
Actual Time 5:48 AM PDT 7:29 PM PDT
Civil Twilight 5:22 AM PDT 7:56 PM PDT
Nautical Twilight 4:49 AM PDT 8:28 PM PDT
Astronomical Twilight 4:16 AM PDT 9:02 PM PDT
Moon 4:55 AM PDT (5/8) 6:34 PM PDT (5/8)
Length of Visible Light 14h 34m
Length of Day
13h 41m
Waning Crescent, 1% of the Moon is Illuminated
May 8
Waning Crescent
May 9
New
May 17
First Quarter
May 24
Full
May 31
Last Quarter

Hourly Weather History & Observations

Time (PDT) Temp. Dew Point Humidity Pressure Visibility Wind Dir Wind Speed Gust Speed Precip Events Conditions
12:56 AM 64.0 °F 41.0 °F 43% 30.01 in 10.0 mi WSW 17.3 mph - N/A   Clear
1:56 AM 63.0 °F 43.0 °F 48% 30.01 in 10.0 mi WSW 18.4 mph - N/A   Clear
2:56 AM 62.1 °F 44.1 °F 52% 30.01 in 10.0 mi WSW 18.4 mph - N/A   Clear
3:56 AM 62.1 °F 43.0 °F 50% 30.02 in 10.0 mi WSW 13.8 mph - N/A   Clear
4:56 AM 60.1 °F 42.1 °F 51% 30.03 in 10.0 mi WSW 11.5 mph - N/A   Clear
5:56 AM 61.0 °F 39.9 °F 46% 30.03 in 10.0 mi West 10.4 mph - N/A   Clear
6:56 AM 63.0 °F 41.0 °F 45% 30.05 in 10.0 mi WSW 10.4 mph - N/A   Mostly Cloudy
7:56 AM 66.9 °F 41.0 °F 39% 30.05 in 10.0 mi WSW 11.5 mph - N/A   Mostly Cloudy
8:56 AM 70.0 °F 39.9 °F 33% 30.07 in 10.0 mi West 11.5 mph - N/A   Clear
9:56 AM 73.0 °F 41.0 °F 31% 30.06 in 10.0 mi West 6.9 mph - N/A   Scattered Clouds
10:56 AM 75.0 °F 39.9 °F 28% 30.06 in 10.0 mi SSW 5.8 mph - N/A   Scattered Clouds
11:56 AM 78.1 °F 39.9 °F 25% 30.04 in 10.0 mi Calm Calm - N/A   Scattered Clouds
12:56 PM 79.0 °F 39.9 °F 25% 30.03 in 9.0 mi South 10.4 mph - N/A   Scattered Clouds
1:56 PM 80.1 °F 37.0 °F 21% 30.01 in 10.0 mi Variable 5.8 mph - N/A   Scattered Clouds
2:56 PM 82.9 °F 37.0 °F 19% 29.99 in 10.0 mi Variable 5.8 mph - N/A   Scattered Clouds
3:56 PM 82.0 °F 36.0 °F 19% 29.97 in 10.0 mi West 5.8 mph - N/A   Scattered Clouds
4:56 PM 82.9 °F 36.0 °F 19% 29.95 in 10.0 mi Calm Calm - N/A   Scattered Clouds
5:56 PM 82.0 °F 37.0 °F 20% 29.94 in 10.0 mi SE 3.5 mph - N/A   Clear
6:56 PM 78.1 °F 43.0 °F 29% 29.94 in 10.0 mi WSW 10.4 mph - N/A   Partly Cloudy
7:56 PM 73.9 °F 46.0 °F 37% 29.96 in 10.0 mi WSW 17.3 mph - N/A   Clear
8:56 PM 71.1 °F 46.0 °F 41% 29.98 in 10.0 mi West 16.1 mph - N/A   Clear
9:56 PM 70.0 °F 45.0 °F 41% 29.99 in 10.0 mi WSW 19.6 mph - N/A   Clear
10:56 PM 69.1 °F 44.1 °F 40% 30.00 in 10.0 mi West 17.3 mph - N/A   Clear
11:56 PM 68.0 °F 44.1 °F 42% 30.01 in 10.0 mi West 17.3 mph - N/A   Clear